[[{"header":{"parameterUnit":"m.s-1","parameterCategory":1,"la1":30.2991,"la2":30.254,"lo1":-89.0895,"lo2":-89.0444,"dx":0.0017,"dy":0.0017,"nx":28,"ny":28,"refTime":"2023-01-23T03:00:00:Z","depth":0,"parameterNumber":2,"parameterNumberName":"U-component_of_WINDS"},"data":[0,0,0,0,0,0,0,0,0,0,0,0,0,0,0,0,0,0,0,0,0,0,0,0,0,0,0,0,0,0,0,0,0,0,0,0,0,0,0,0,0,0,0,0,0,0,0,0,0,0,0,0,0,0,0,0,0,0,3.2816,3.2817,0,3.2876,3.2876,3.2877,3.2842,3.2841,3.2839,3.2837,3.2896,3.2899,3.2902,0,0,0,0,0,0,0,0,0,0,0,0,0,3.2672,3.2675,3.2816,3.2817,3.2818,3.2875,3.2876,3.2877,3.2843,3.284,3.2838,3.2837,3.2895,3.2898,3.2902,0,0,0,0,0,0,0,0,0,0,0,0,0,3.2734,3.2676,3.2816,3.2808,3.2807,3.2875,3.2876,3.2877,3.2843,3.284,3.2838,3.2836,3.2893,3.2898,3.2903,3.2982,0,0,3.2917,3.2919,0,0,0,0,0,0,0,0,3.273,3.2739,3.2808,3.2808,3.2808,3.2849,3.2847,3.2912,3.2844,3.2829,3.2837,3.2834,3.2882,3.2888,3.2904,3.2984,3.2987,3.2917,3.292,3.2922,3.2923,0,0,0,0,0,0,0,3.2726,3.2736,3.284,3.2809,3.2809,3.28,3.2806,3.2859,3.2869,3.283,3.2828,3.2836,3.2882,3.29,3.2905,3.2988,3.2917,3.2921,3.2924,3.2926,3.3137,3.314,0,0,0,0,0,0,3.2723,3.2733,3.2838,3.2841,3.2762,3.2805,3.2812,3.2838,3.2868,3.2871,3.2838,3.2834,3.2893,3.29,3.2907,3.3002,3.2922,3.2927,3.2929,3.3135,3.3138,3.3141,0,0,0,0,0,0,3.272,3.2732,3.2835,3.2787,3.2799,3.281,3.2841,3.2841,3.2859,3.2874,3.2875,3.2854,3.2891,3.2901,3.2964,3.3004,3.2929,3.2933,3.3131,3.3136,3.314,3.3193,0,0,0,0,0,0,3.2716,3.2731,3.2762,3.2788,3.2802,3.2892,3.2843,3.2844,3.2867,3.2863,3.289,3.2892,3.289,3.2957,3.2969,3.3009,3.2937,3.3128,3.3133,3.3138,3.3188,3.3198,3.3208,0,0,0,0,0,3.2711,3.2773,3.2763,3.2776,3.284,3.2894,3.2902,3.2899,3.2871,3.2901,3.2911,3.2891,3.2998,3.2964,3.2976,3.3019,3.3125,3.3132,3.3138,3.3183,3.3196,3.3208,0,0,0,0,0,0,3.2751,3.2777,3.2766,3.2839,3.2865,3.2888,3.2926,3.2913,3.2946,3.2941,3.2935,3.2941,3.3008,3.302,3.2981,3.3098,3.3057,3.3066,3.3087,3.31,3.311,3.3105,3.294,0,0,0,0,0,3.2768,3.281,3.2831,3.2893,3.2907,3.2915,3.2938,3.2934,3.296,3.297,3.2985,3.301,3.305,3.3075,3.3112,3.319,3.3195,3.3225,3.3235,3.3243,3.3251,3.3294,3.3307,3.3162,3.3162,3.3162,0,0,3.2804,3.2824,3.2851,3.2902,3.2921,3.2965,3.2924,3.2971,3.3004,3.2977,3.3038,3.305,3.3078,3.3149,3.3181,3.3161,3.3293,3.3251,3.3258,3.3261,3.3302,3.3315,3.3328,3.3166,3.3165,3.3165,0,0,3.2893,3.2912,3.2966,3.2987,3.3018,3.3023,3.3036,3.3062,3.3069,3.3131,3.3112,3.3151,3.3218,3.324,3.3259,3.3358,3.3341,3.3371,3.3423,3.3464,3.3476,3.3486,3.3521,3.3534,3.3378,3.3378,3.3379,0,3.2933,3.2999,3.2996,3.3046,3.3069,3.3049,3.3104,3.3124,3.3165,3.3182,3.3159,3.3245,3.3262,3.3339,3.3363,3.338,3.3395,3.3367,3.3474,3.3485,3.3494,3.3528,3.3541,3.3382,3.3381,3.3381,3.3381,0,3.3048,3.3094,3.3134,3.3176,3.3204,3.3256,3.3261,3.329,3.3284,3.3291,3.3355,3.3376,3.3417,3.3435,3.3429,3.3511,3.3497,3.3475,3.3434,3.3511,3.3543,3.3556,3.3387,3.3385,3.3384,3.3384,0,0,3.3161,3.3202,3.3217,3.3236,3.3269,3.3304,3.3356,3.3398,3.3423,3.3452,3.3495,3.3555,3.3535,3.3557,3.3553,3.359,3.3668,3.3563,3.3564,3.3582,3.376,3.3776,3.3791,3.3657,3.366,3.3662,3.3758,0,3.3252,3.3343,3.3343,3.3427,3.347,3.3452,3.3497,3.3522,3.3531,3.3569,3.3578,3.362,3.359,3.3604,3.364,3.3651,3.3703,3.3644,3.3697,3.3699,3.369,3.3808,3.3825,3.3914,3.377,3.3772,3.3774,0,3.3369,3.3404,3.3492,3.3521,3.3539,3.3579,3.3618,3.3654,3.3683,3.3687,3.3713,3.3705,3.3758,3.3716,3.3789,3.3749,3.3771,3.378,3.3783,3.3787,3.3741,3.3815,3.3943,3.3956,3.3793,3.3791,3.379,0,3.3443,3.3512,3.3574,3.3591,3.3626,3.3655,3.367,3.3697,3.3722,3.3756,3.3773,3.3812,3.3834,3.3865,3.3867,3.3837,3.3941,3.3899,3.3946,3.3946,3.3967,3.3966,3.41,3.3983,3.3982,3.3982,3.3982,0,3.3544,3.3598,3.3608,3.3646,3.3708,3.3707,3.3768,3.3781,3.3805,3.3846,3.3833,3.3871,3.3872,3.3911,3.3913,3.3974,3.3983,3.3988,3.3988,3.3989,3.3988,3.4003,3.3996,3.3986,3.3985,3.3984,3.3984,0,3.3636,3.3644,3.3711,3.3739,3.3748,3.3792,3.3816,3.3852,3.3861,3.3912,3.3924,3.3938,3.3983,3.3989,3.4042,3.4044,3.4116,3.411,3.4107,3.4106,3.4152,3.4147,3.4299,3.4319,3.4189,3.419,3.4191,0,3.3699,3.3741,3.3775,3.3801,3.3819,3.3862,3.3889,3.389,3.3919,3.3956,3.3988,3.4033,3.4068,3.4142,3.4156,3.4197,3.4191,3.4242,3.4197,3.4197,3.4192,3.4189,3.4193,3.425,3.4251,3.4252,3.4253,0,3.3811,3.3814,3.3852,3.3894,3.3926,3.3959,3.3989,3.4011,3.4017,3.4049,3.4097,3.4125,3.418,3.4224,3.4265,3.4281,3.4268,3.4268,3.428,3.4281,3.4278,3.4281,3.413,3.4264,3.4263,3.4262,3.4261,3.4261,3.389,3.3928,3.3957,3.4002,3.4025,3.4054,3.409,3.4104,3.4144,3.4189,3.4188,3.424,3.4269,3.4323,3.4342,3.4382,3.4366,3.4384,3.4389,3.4393,3.4398,3.4273,3.439,3.439,3.4389,3.4389,3.4389,0,3.4001,3.402,3.4061,3.4105,3.414,3.4127,3.416,3.419,3.4236,3.4265,3.4301,3.4356,3.4399,3.4418,3.4461,3.449,3.4485,3.4501,3.4498,3.4502,3.441,3.4395,3.4504,3.4504,3.4504,3.4504,3.4504,3.4504,3.4063,3.4125,3.4132,3.4206,3.4224,3.4276,3.4296,3.4323,3.4346,3.4408,3.4445,3.4457,3.4482,3.4527,3.4566,3.4571,3.4587,3.4605,3.4607,3.452,3.4509,3.4498,3.4483,3.4609,3.4609,3.4696,3.4696,3.4697]},{"header":{"parameterUnit":"m.s-1","parameterCategory":1,"la1":30.2991,"la2":30.254,"lo1":-89.0895,"lo2":-89.0444,"dx":0.0017,"dy":0.0017,"nx":28,"ny":28,"refTime":"2023-01-23T03:00:00:Z","depth":0,"parameterNumber":3,"parameterNumberName":"V-component_of_WINDS"},"data":[0,0,0,0,0,0,0,0,0,0,0,0,0,0,0,0,0,0,0,0,0,0,0,0,0,0,0,0,0,0,0,0,0,0,0,0,0,0,0,0,0,0,0,0,0,0,0,0,0,0,0,0,0,0,0,0,0,0,-5.9812,-5.9814,0,-6.0005,-6.0007,-6.0009,-5.9966,-5.9962,-5.9958,-5.9955,-6.0151,-6.0159,-6.0168,0,0,0,0,0,0,0,0,0,0,0,0,0,-5.9406,-5.9413,-5.9812,-5.9814,-5.9817,-6.0004,-6.0007,-6.0009,-5.9966,-5.9962,-5.9957,-5.9953,-6.0148,-6.0158,-6.0169,0,0,0,0,0,0,0,0,0,0,0,0,0,-5.9589,-5.9416,-5.9811,-5.9818,-5.982,-6.0004,-6.0007,-6.001,-5.9967,-5.9962,-5.9956,-5.9951,-6.0145,-6.0157,-6.017,-6.0359,0,0,-6.0209,-6.0215,0,0,0,0,0,0,0,0,-5.9578,-5.9604,-5.9814,-5.9818,-5.9821,-5.9955,-5.9935,-6.0127,-5.9969,-5.9911,-5.9955,-5.9948,-6.009,-6.0107,-6.0155,-6.0368,-6.0376,-6.0211,-6.0218,-6.0224,-6.0228,0,0,0,0,0,0,0,-5.9566,-5.9595,-5.9888,-5.9817,-5.9821,-5.9811,-5.9831,-5.9972,-6.0029,-5.9916,-5.9913,-5.9937,-6.0091,-6.0143,-6.016,-6.0379,-6.021,-6.0222,-6.023,-6.0235,-6.0757,-6.0763,0,0,0,0,0,0,-5.955,-5.9585,-5.9882,-5.9894,-5.9684,-5.9822,-5.9845,-5.9918,-6.0027,-6.0039,-5.9941,-5.9934,-6.0124,-6.0145,-6.0166,-6.0395,-6.0224,-6.0236,-6.0243,-6.0751,-6.0758,-6.0765,0,0,0,0,0,0,-5.9542,-5.9577,-5.9874,-5.9739,-5.9776,-5.9835,-5.9917,-5.9924,-5.9976,-6.0046,-6.0056,-5.9984,-6.012,-6.0148,-6.0312,-6.0401,-6.0242,-6.0254,-6.0744,-6.0753,-6.0762,-6.0854,0,0,0,0,0,0,-5.953,-5.9574,-5.9647,-5.9741,-5.9783,-6.0017,-5.9923,-5.9932,-5.9999,-5.9991,-6.0089,-6.01,-6.0118,-6.0293,-6.0324,-6.0416,-6.0264,-6.0736,-6.0748,-6.0759,-6.0843,-6.0865,-6.0884,0,0,0,0,0,-5.9516,-5.9665,-5.9651,-5.9687,-5.9875,-6.0022,-6.0046,-6.0064,-6.0006,-6.008,-6.0125,-6.0097,-6.0386,-6.031,-6.0345,-6.0442,-6.073,-6.0744,-6.0758,-6.0834,-6.0861,-6.0883,0,0,0,0,0,0,-5.958,-5.9677,-5.9663,-5.9847,-5.9926,-6.0014,-6.0107,-6.0092,-6.0189,-6.0178,-6.0196,-6.0218,-6.0385,-6.043,-6.0343,-6.0631,-6.055,-6.0571,-6.0596,-6.0622,-6.0642,-6.0628,-6.0274,0,0,0,0,0,-5.9616,-5.9727,-5.9806,-5.996,-6.0001,-6.0048,-6.0112,-6.0119,-6.0202,-6.0236,-6.0293,-6.0374,-6.0483,-6.0555,-6.0659,-6.0849,-6.087,-6.0933,-6.0954,-6.097,-6.0989,-6.1093,-6.1122,-6.081,-6.081,-6.081,0,0,-5.969,-5.9757,-5.9826,-5.9975,-6.0038,-6.0152,-6.0076,-6.0201,-6.0286,-6.0254,-6.0412,-6.0457,-6.0549,-6.0727,-6.0808,-6.0769,-6.1079,-6.0988,-6.1,-6.101,-6.111,-6.114,-6.1166,-6.082,-6.0818,-6.0816,0,0,-5.9885,-5.9947,-6.0082,-6.0147,-6.0243,-6.0273,-6.0305,-6.0396,-6.0425,-6.0584,-6.0562,-6.0664,-6.0851,-6.0918,-6.0976,-6.1197,-6.1175,-6.123,-6.1337,-6.1438,-6.1463,-6.1485,-6.1564,-6.1592,-6.1248,-6.1249,-6.1249,0,-5.9965,-6.0138,-6.0154,-6.0281,-6.0347,-6.0324,-6.0462,-6.0523,-6.0648,-6.0695,-6.065,-6.0885,-6.0945,-6.1139,-6.1192,-6.124,-6.1278,-6.1219,-6.1458,-6.148,-6.1501,-6.1577,-6.1606,-6.1255,-6.1254,-6.1253,-6.1253,0,-6.0232,-6.0352,-6.045,-6.0572,-6.0649,-6.0781,-6.0817,-6.0893,-6.0894,-6.0928,-6.109,-6.1162,-6.1281,-6.1327,-6.1328,-6.1521,-6.1494,-6.1454,-6.1373,-6.1537,-6.1608,-6.1637,-6.1263,-6.1261,-6.1259,-6.1258,0,0,-6.0473,-6.0603,-6.0638,-6.0694,-6.0798,-6.0891,-6.1021,-6.1138,-6.1203,-6.129,-6.14,-6.1559,-6.1523,-6.1589,-6.1598,-6.1687,-6.1858,-6.1636,-6.1638,-6.1675,-6.2075,-6.2105,-6.2138,-6.1844,-6.1849,-6.1854,-6.2067,0,-6.0678,-6.0909,-6.0927,-6.1135,-6.1246,-6.1226,-6.1339,-6.1416,-6.1451,-6.1551,-6.159,-6.1703,-6.1646,-6.1686,-6.1773,-6.1818,-6.1938,-6.1803,-6.1946,-6.1951,-6.1925,-6.2175,-6.2208,-6.2406,-6.2095,-6.21,-6.2103,0,-6.0948,-6.1043,-6.1262,-6.1351,-6.1398,-6.15,-6.1609,-6.1704,-6.179,-6.181,-6.1884,-6.1881,-6.2015,-6.1929,-6.2114,-6.2022,-6.2081,-6.2112,-6.212,-6.2135,-6.2038,-6.2197,-6.2469,-6.2499,-6.2147,-6.2144,-6.2141,0,-6.1102,-6.1285,-6.144,-6.1488,-6.1595,-6.1668,-6.1716,-6.1796,-6.1865,-6.196,-6.2005,-6.2114,-6.2173,-6.2258,-6.2283,-6.2218,-6.2468,-6.2384,-6.2488,-6.2488,-6.2542,-6.2539,-6.2828,-6.258,-6.2579,-6.2579,-6.2578,0,-6.1329,-6.1464,-6.1511,-6.1607,-6.1757,-6.1777,-6.1925,-6.1969,-6.2041,-6.2144,-6.2133,-6.223,-6.2258,-6.236,-6.2381,-6.2532,-6.2558,-6.2578,-6.2582,-6.258,-6.2578,-6.262,-6.2607,-6.2587,-6.2585,-6.2583,-6.2582,0,-6.1527,-6.1564,-6.1732,-6.182,-6.1845,-6.1952,-6.2028,-6.2119,-6.2153,-6.2284,-6.2316,-6.237,-6.2489,-6.2523,-6.2667,-6.2681,-6.2858,-6.2849,-6.2829,-6.2829,-6.2932,-6.2922,-6.326,-6.3305,-6.3026,-6.3029,-6.3031,0,-6.167,-6.1773,-6.1873,-6.1941,-6.1993,-6.2103,-6.2174,-6.2197,-6.2271,-6.2376,-6.2456,-6.2574,-6.267,-6.2862,-6.2914,-6.3023,-6.3017,-6.3128,-6.3034,-6.3028,-6.302,-6.3014,-6.3024,-6.3146,-6.3149,-6.3151,-6.3153,0,-6.192,-6.1933,-6.2035,-6.2144,-6.2229,-6.2316,-6.2399,-6.2456,-6.2491,-6.2574,-6.2697,-6.2772,-6.2918,-6.3036,-6.3147,-6.3196,-6.3182,-6.3183,-6.3213,-6.3212,-6.3196,-6.3207,-6.2879,-6.3175,-6.3173,-6.3171,-6.317,-6.3169,-6.2095,-6.2186,-6.2271,-6.2385,-6.245,-6.2528,-6.2619,-6.2665,-6.2767,-6.2889,-6.2896,-6.3029,-6.3113,-6.3261,-6.3316,-6.342,-6.3387,-6.3431,-6.3442,-6.3452,-6.3461,-6.3179,-6.344,-6.344,-6.3439,-6.3439,-6.3438,0,-6.2345,-6.2398,-6.2503,-6.262,-6.271,-6.2688,-6.2779,-6.2856,-6.2974,-6.3053,-6.3147,-6.3289,-6.3403,-6.3463,-6.3577,-6.3649,-6.3645,-6.3678,-6.3673,-6.3685,-6.3484,-6.3447,-6.3679,-6.3679,-6.3679,-6.3679,-6.3679,-6.3679,-6.2485,-6.2639,-6.2662,-6.2847,-6.2899,-6.303,-6.3084,-6.3156,-6.322,-6.3378,-6.3473,-6.3512,-6.3584,-6.3702,-6.3806,-6.3821,-6.3863,-6.3901,-6.3912,-6.3723,-6.3699,-6.3675,-6.364,-6.391,-6.391,-6.4104,-6.4106,-6.4107]}]]